This is the latest recevied weather packets stored in our database for station/object DB0MOD. If no packets are shown the sender has not sent any weather packets the latest 10 day(s).
| Time | Temp. | Humidity | Pressure | Rain* | Wind** | Luminosity | Snow |
|---|---|---|---|---|---|---|---|
| 1777892347 | 23.33° C | 40% | 1015.1 hPa | 0 mm | - | - | - |
| 1777892047 | 23.89° C | 39% | 1015.1 hPa | 0 mm | - | - | - |
| 1777891747 | 23.89° C | 39% | 1015.2 hPa | 0 mm | - | - | - |
| 1777891447 | 24.44° C | 39% | 1015.1 hPa | 0 mm | - | - | - |
| 1777891147 | 24.44° C | 39% | 1015.1 hPa | 0 mm | - | - | - |
| 1777890847 | 23.89° C | 39% | 1015.2 hPa | 0 mm | - | - | - |
| 1777890547 | 23.89° C | 39% | 1015.3 hPa | 0 mm | - | - | - |
| 1777890247 | 23.89° C | 39% | 1015.5 hPa | 0 mm | - | - | - |
| 1777889947 | 24.44° C | 38% | 1015.4 hPa | 0 mm | - | - | - |
| 1777889647 | 24.44° C | 38% | 1015.5 hPa | 0 mm | - | - | - |
| 1777889347 | 24.44° C | 37% | 1015.6 hPa | 0 mm | - | - | - |
| 1777889047 | 25.56° C | 36% | 1015.4 hPa | 0 mm | - | - | - |
| 1777888447 | 26.67° C | 36% | 1015.6 hPa | 0 mm | - | - | - |
| 1777888147 | 26.67° C | 35% | 1015.5 hPa | 0 mm | - | - | - |
| 1777887847 | 26.67° C | 36% | 1015.5 hPa | 0 mm | - | - | - |
| 1777887547 | 26.11° C | 36% | 1015.5 hPa | 0 mm | - | - | - |
| 1777887247 | 26.11° C | 36% | 1015.4 hPa | 0 mm | - | - | - |
| 1777886947 | 26.11° C | 36% | 1015.5 hPa | 0 mm | - | - | - |
| 1777886647 | 26.11° C | 37% | 1015.4 hPa | 0 mm | - | - | - |
| 1777886347 | 25.56° C | 37% | 1015.3 hPa | 0 mm | - | - | - |
| 1777886047 | 25° C | 38% | 1015.3 hPa | 0 mm | - | - | - |
| 1777885747 | 25° C | 38% | 1015.3 hPa | 0 mm | - | - | - |
| 1777885147 | 24.44° C | 39% | 1015.1 hPa | 0 mm | - | - | - |
| 1777884847 | 24.44° C | 40% | 1015 hPa | 0 mm | - | - | - |
| 1777884547 | 23.89° C | 40% | 1015 hPa | 0 mm | - | - | - |
* Rain latest hour (hover to see other rain measurements)
** Current wind speed in m/s (hover to see current wind gust speed)